{"data":{"norad_id":64887,"epoch":"2026-09-21T21:04:57.400032Z","epoch_age_seconds":52191,"freshness":"FRESH","line1":"1 64887U 25155M   26264.87844213  .00023480  00000+0  53066-3 0  9997","line2":"2 64887  97.4597 237.0765 0007327 149.6200 210.5474 15.43152446 95773","mean_motion":15.43152446,"eccentricity":0.0007327,"inclination_deg":97.4597,"raan_deg":237.0765,"arg_perigee_deg":149.62,"mean_anomaly_deg":210.5474,"bstar":0.00053066,"rev_number":9577,"period_min":93.315472734571,"perigee_km":431.81884621003,"apogee_km":441.8054727083,"semimajor_km":6814.9491594592,"source":"CELESTRAK","updated_at":"2026-09-22T09:00:30.016576Z"}}